ONEWEB-0628 (55169 NORAD) Tracking and Keplerian Element Data

This shows tracking and keplerian element data for the satellite.

Feedback or suggestion? Click here.




ElementValue
Catalog55169
NameONEWEB-0628
Epoch Orbit130
Epoch Day13.91667824
Epoch Year2023
RAAN284.1397
Inclination86.5132
Eccentricity0.001289
Argument of Perigee212.086
Mean Anonmoly64.8355
Mean Motion14.91820473
Decay Rate-0.00047283
L11 55169U 23004AF 23013.91667824 -.00047283 00000+0 -47209-2 0 9996
L22 55169 86.5132 284.1397 0012890 212.0860 64.8355 14.91820473 1300



Live tracking and technical data element details for ONEWEB-0628 (NORAD 55169). ONEWEB-0628 can be tracked NOW for your location showing map with azimuth and elevation plus other details from your city location.







IsCatalogInMostPopularTable: catalog: 55169, numindb: 3
Update: records affected: 1



GetName: 55169 ONEWEB-0628

Hit Count: updated at: Tue, 07 Feb 2023 13:58:44 GMT